Weather History for Middlesboro, KY

Change the Weather History Date:

Wednesday, November 21, 2012

  Actual Average (KLOZ) Record (KLOZ)
Temperature  
Mean Temperature 53 °F 46 °F  
Max Temperature 69 °F 56 °F 75 °F (1979)
Min Temperature 37 °F 35 °F 15 °F (1964)
Degree Days  
Heating Degree Days 12 19  
Month to date heating degree days 336  
Since 1 July heating degree days 642  
Cooling Degree Days 0 0  
Month to date cooling degree days 0  
Year to date cooling degree days 1188  
Growing Degree Days 3 (Base 50)    
Moisture  
Dew Point 42 °F    
Average Humidity 77    
Maximum Humidity 100    
Minimum Humidity 40    
Precipitation  
Precipitation 0.00 in 0.14 in 0.95 in (1962)
Month to date precipitation 2.56  
Year to date precipitation 41.63  
Sea Level Pressure  
Sea Level Pressure 30.17 in    
Wind  
Wind Speed 1 mph (North)    
Max Wind Speed 8 mph    
Max Gust Speed -    
Visibility 8 miles    
Events      
T = Trace of Precipitation, MM = Missing Value Source: NWS Daily Summary

Daily Weather History Graph

Daily Weather History Graph

Search for Another Location

Airport:

Trip Planner

Search our weather history database for the weather conditions in past years. The results will help you decide how hot, cold, wet, or windy it might be!

Date:

Astronomy

Nov. 21, 2012 Rise Set
Actual Time 6:19 AM CST 4:22 PM CST
Civil Twilight 5:51 AM CST 4:50 PM CST
Nautical Twilight 5:19 AM CST 5:21 PM CST
Astronomical Twilight 4:49 AM CST 5:52 PM CST
Moon 12:29 PM CST No Moon Set
Length of Visible Light 10h 58m
Length of Day
10h 03m
First Quarter, 62% of the Moon is Illuminated
Nov 21
First Quarter
Nov 28
Full
Dec 6
Last Quarter
Dec 13
New
Dec 19
First Quarter

Hourly Weather History & Observations

Time (CST) Temp. Dew Point Humidity Pressure Visibility Wind Dir Wind Speed Gust Speed Precip Events Conditions
12:15 AM 50.0 °F 44.6 °F 82% 30.12 in 5.0 mi Calm Calm - N/A   Haze
12:35 AM 50.0 °F 44.6 °F 82% 30.12 in 5.0 mi Calm Calm - N/A   Haze
12:55 AM 50.0 °F 44.6 °F 82% 30.11 in 4.0 mi Calm Calm - N/A   Haze
1:15 AM 48.2 °F 44.6 °F 87% 30.11 in 4.0 mi Calm Calm - N/A   Scattered Clouds
1:35 AM 46.4 °F 44.6 °F 93% 30.11 in 10.0 mi Calm Calm - N/A   Clear
1:55 AM 44.6 °F 42.8 °F 93% 30.11 in 7.0 mi Calm Calm - N/A   Clear
2:15 AM 42.8 °F 42.8 °F 100% 30.12 in 5.0 mi Calm Calm - N/A   Clear
2:35 AM 44.6 °F 42.8 °F 93% 30.12 in 7.0 mi Calm Calm - N/A   Clear
2:55 AM 42.8 °F 39.2 °F 87% 30.12 in 7.0 mi Calm Calm - N/A   Clear
3:15 AM 42.8 °F 42.8 °F 100% 30.12 in 10.0 mi Calm Calm - N/A   Mostly Cloudy
3:35 AM 42.8 °F 41.0 °F 93% 30.12 in 5.0 mi Calm Calm - N/A   Mostly Cloudy
3:55 AM 42.8 °F 41.0 °F 93% 30.13 in 7.0 mi Calm Calm - N/A   Scattered Clouds
4:15 AM 42.8 °F 41.0 °F 93% 30.14 in 7.0 mi Calm Calm - N/A   Clear
4:35 AM 39.2 °F 39.2 °F 100% 30.15 in 5.0 mi Calm Calm - N/A   Clear
4:55 AM 39.2 °F 39.2 °F 100% 30.16 in 5.0 mi Calm Calm - N/A   Clear
5:15 AM 39.2 °F 37.4 °F 93% 30.16 in 7.0 mi Calm Calm - N/A   Clear
5:35 AM 39.2 °F 37.4 °F 93% 30.17 in 7.0 mi Calm Calm - N/A   Clear
5:55 AM 37.4 °F 37.4 °F 100% 30.17 in 10.0 mi Calm Calm - N/A   Clear
6:15 AM 37.4 °F 37.4 °F 100% 30.18 in 5.0 mi Calm Calm - N/A   Clear
6:35 AM 37.4 °F 37.4 °F 100% 30.19 in 4.0 mi Calm Calm - N/A   Clear
6:55 AM 37.4 °F 37.4 °F 100% 30.19 in 2.5 mi Calm Calm - N/A   Clear
7:15 AM 37.4 °F 37.4 °F 100% 30.20 in 7.0 mi Calm Calm - N/A   Clear
7:35 AM 39.2 °F 39.2 °F 100% 30.20 in 7.0 mi Calm Calm - N/A   Clear
7:55 AM 42.8 °F 41.0 °F 93% 30.20 in 3.0 mi Calm Calm - N/A   Clear
8:15 AM 44.6 °F 42.8 °F 93% 30.20 in 4.0 mi Calm Calm - N/A   Clear
8:35 AM 48.2 °F 42.8 °F 82% 30.20 in 3.0 mi Calm Calm - N/A   Haze
8:55 AM 51.8 °F 44.6 °F 76% 30.20 in 3.0 mi Calm Calm - N/A   Haze
9:15 AM 53.6 °F 44.6 °F 72% 30.21 in 3.0 mi Calm Calm - N/A   Haze
9:35 AM 55.4 °F 44.6 °F 67% 30.21 in 7.0 mi Calm Calm - N/A   Clear
9:55 AM 57.2 °F 44.6 °F 63% 30.20 in 7.0 mi Calm Calm - N/A   Clear
10:15 AM 60.8 °F 46.4 °F 59% 30.20 in 5.0 mi Calm Calm - N/A   Haze
10:35 AM 62.6 °F 46.4 °F 55% 30.20 in 10.0 mi Calm Calm - N/A   Clear
10:55 AM 64.4 °F 44.6 °F 49% 30.19 in 7.0 mi Calm Calm - N/A   Clear
11:15 AM 64.4 °F 44.6 °F 49% 30.18 in 7.0 mi Calm Calm - N/A   Clear
11:35 AM 66.2 °F 44.6 °F 46% 30.17 in 10.0 mi East 6.9 mph - N/A   Clear
11:55 AM 66.2 °F 44.6 °F 46% 30.17 in 10.0 mi ENE 5.8 mph - N/A   Clear
12:15 PM 66.2 °F 44.6 °F 46% 30.16 in 10.0 mi East 3.5 mph - N/A   Clear
12:35 PM 68.0 °F 44.6 °F 43% 30.15 in 10.0 mi ESE 3.5 mph - N/A   Clear
12:55 PM 68.0 °F 44.6 °F 43% 30.15 in 10.0 mi North 8.1 mph - N/A   Clear
1:15 PM 68.0 °F 44.6 °F 43% 30.15 in 10.0 mi North 3.5 mph - N/A   Clear
1:35 PM 68.0 °F 44.6 °F 43% 30.15 in 10.0 mi NNE 3.5 mph - N/A   Clear
1:55 PM 69.8 °F 44.6 °F 40% 30.14 in 10.0 mi Calm Calm - N/A   Clear
2:15 PM 69.8 °F 44.6 °F 40% 30.14 in 10.0 mi Calm Calm - N/A   Scattered Clouds
2:35 PM 69.8 °F 44.6 °F 40% 30.14 in 10.0 mi NW 5.8 mph - N/A   Scattered Clouds
2:55 PM 68.0 °F 44.6 °F 43% 30.15 in 10.0 mi NW 3.5 mph - N/A   Clear
3:15 PM 66.2 °F 44.6 °F 46% 30.15 in 10.0 mi North 5.8 mph - N/A   Clear
3:35 PM 66.2 °F 44.6 °F 46% 30.16 in 10.0 mi North 4.6 mph - N/A   Clear
3:55 PM 64.4 °F 44.6 °F 49% 30.16 in 10.0 mi NNW 5.8 mph - N/A   Clear
4:15 PM 62.6 °F 44.6 °F 52% 30.16 in 10.0 mi NNW 3.5 mph - N/A   Clear
4:35 PM 60.8 °F 44.6 °F 55% 30.16 in 10.0 mi Calm Calm - N/A   Clear
4:55 PM 55.4 °F 44.6 °F 67% 30.17 in 10.0 mi Calm Calm - N/A   Clear
5:15 PM 53.6 °F 44.6 °F 72% 30.18 in 10.0 mi Calm Calm - N/A   Clear
5:55 PM 51.8 °F 44.6 °F 76% 30.19 in 7.0 mi West 3.5 mph - N/A   Clear
6:15 PM 50.0 °F 42.8 °F 76% 30.20 in 10.0 mi Calm Calm - N/A   Clear
6:35 PM 48.2 °F 42.8 °F 82% 30.20 in 10.0 mi Calm Calm - N/A   Clear
6:55 PM 46.4 °F 41.0 °F 81% 30.20 in 10.0 mi Calm Calm - N/A   Clear
7:15 PM 44.6 °F 41.0 °F 87% 30.20 in 10.0 mi Calm Calm - N/A   Clear
7:35 PM 44.6 °F 41.0 °F 87% 30.21 in 10.0 mi Calm Calm - N/A   Clear
7:55 PM 44.6 °F 39.2 °F 81% 30.21 in 10.0 mi Calm Calm - N/A   Clear
8:15 PM 42.8 °F 39.2 °F 87% 30.21 in 10.0 mi Calm Calm - N/A   Clear
8:35 PM 42.8 °F 39.2 °F 87% 30.22 in 10.0 mi Calm Calm - N/A   Clear
8:55 PM 42.8 °F 39.2 °F 87% 30.22 in 10.0 mi Calm Calm - N/A   Clear
9:15 PM 42.8 °F 39.2 °F 87% 30.21 in 10.0 mi Calm Calm - N/A   Clear
9:35 PM 41.0 °F 39.2 °F 93% 30.21 in 10.0 mi Calm Calm - N/A   Clear
9:55 PM 39.2 °F 39.2 °F 100% 30.22 in 10.0 mi Calm Calm - N/A   Clear
10:15 PM 39.2 °F 37.4 °F 93% 30.21 in 10.0 mi Calm Calm - N/A   Clear
10:35 PM 39.2 °F 37.4 °F 93% 30.21 in 7.0 mi Calm Calm - N/A   Clear
10:55 PM 37.4 °F 37.4 °F 100% 30.21 in 7.0 mi Calm Calm - N/A   Clear
11:15 PM 37.4 °F 37.4 °F 100% 30.21 in 7.0 mi Calm Calm - N/A   Clear
11:35 PM 37.4 °F 37.4 °F 100% 30.21 in 7.0 mi Calm Calm - N/A   Clear
11:55 PM 37.4 °F 35.6 °F 93% 30.21 in 7.0 mi Calm Calm - N/A   Clear